TimeEST,TemperatureF,Dew PointF,Humidity,Sea Level PressureIn,VisibilityMPH,Wind Direction,Wind SpeedMPH,Gust SpeedMPH,PrecipitationIn,Events,Conditions,WindDirDegrees,DateUTC
12:53 AM,3.9,-7.1,60,30.37,10.0,NNW,9.2,-,N/A,,Clear,340,2014-01-03 05:53:00
1:53 AM,1.0,-8.0,66,30.37,10.0,NW,8.1,-,N/A,,Clear,320,2014-01-03 06:53:00
2:53 AM,-0.0,-8.0,69,30.41,10.0,NW,4.6,-,N/A,,Clear,310,2014-01-03 07:53:00
3:53 AM,-2.9,-9.9,72,30.43,10.0,NW,6.9,-,N/A,,Clear,320,2014-01-03 08:53:00
4:53 AM,-2.0,-9.0,72,30.43,10.0,NW,5.8,-,N/A,,Clear,310,2014-01-03 09:53:00
5:53 AM,-7.1,-11.9,79,30.45,10.0,Calm,Calm,-,N/A,,Clear,0,2014-01-03 10:53:00
6:53 AM,-9.0,-14.1,79,30.48,9.0,SW,3.5,-,N/A,,Clear,230,2014-01-03 11:53:00
7:53 AM,-11.0,-16.1,78,30.49,5.0,Calm,Calm,-,N/A,,Haze,0,2014-01-03 12:53:00
8:53 AM,-9.9,-13.0,86,30.51,10.0,SSW,3.5,-,N/A,,Clear,210,2014-01-03 13:53:00
9:53 AM,-2.0,-7.1,79,30.52,10.0,Calm,Calm,-,N/A,,Clear,0,2014-01-03 14:53:00
10:53 AM,1.9,-6.0,69,30.53,10.0,SW,3.5,-,N/A,,Clear,230,2014-01-03 15:53:00
11:53 AM,7.0,-6.0,55,30.51,10.0,SW,5.8,-,N/A,,Clear,230,2014-01-03 16:53:00
12:53 PM,9.0,-5.1,53,30.48,10.0,SW,5.8,-,N/A,,Clear,220,2014-01-03 17:53:00
1:53 PM,10.0,-2.9,56,30.46,10.0,SSW,5.8,-,N/A,,Clear,210,2014-01-03 18:53:00
2:53 PM,10.9,-2.9,54,30.45,10.0,SSW,6.9,-,N/A,,Clear,200,2014-01-03 19:53:00
3:53 PM,10.9,-4.0,51,30.43,10.0,SSW,5.8,-,N/A,,Clear,200,2014-01-03 20:53:00
4:53 PM,10.9,-4.0,51,30.40,10.0,South,6.9,-,N/A,,Clear,180,2014-01-03 21:53:00
5:53 PM,10.9,-2.9,54,30.39,10.0,South,8.1,-,N/A,,Scattered Clouds,180,2014-01-03 22:53:00
6:53 PM,12.0,-0.9,56,30.36,10.0,South,9.2,-,N/A,,Overcast,180,2014-01-03 23:53:00
7:53 PM,12.9,-0.0,56,30.35,10.0,South,10.4,-,N/A,,Overcast,170,2014-01-04 00:53:00
8:53 PM,12.9,1.0,59,30.32,10.0,South,10.4,-,N/A,,Mostly Cloudy,180,2014-01-04 01:53:00
9:53 PM,12.9,1.0,59,30.28,10.0,South,11.5,-,N/A,,Clear,180,2014-01-04 02:53:00
10:53 PM,12.9,1.9,62,30.25,10.0,South,10.4,-,N/A,,Clear,170,2014-01-04 03:53:00
11:53 PM,12.9,3.0,65,30.22,10.0,South,10.4,-,N/A,,Clear,190,2014-01-04 04:53:00